[[{"header":{"parameterUnit":"m.s-1","parameterCategory":1,"la1":30.2991,"la2":30.254,"lo1":-89.0895,"lo2":-89.0444,"dy":0.0017,"dx":0.0017,"nx":28,"ny":28,"refTime":"2025-09-01T21:00:00:Z","depth":0,"parameterNumber":2,"parameterNumberName":"U-component_of_WINDS"},"data":[0,0,0,0,0,0,0,0,0,0,0,0,0,0,0,0,0,0,0,0,0,0,0,0,0,0,0,0,0,0,0,0,0,0,0,0,0,0,0,0,0,0,0,0,0,0,0,0,0,0,0,0,0,0,0,0,0,0,-2.8922,-2.8922,0,-2.8911,-2.8911,-2.8911,-2.8822,-2.882,-2.8818,-2.8816,-2.8806,-2.8807,-2.8809,0,0,0,0,0,0,0,0,0,0,0,0,0,-2.8867,-2.8869,-2.8922,-2.8922,-2.8922,-2.8912,-2.8911,-2.8911,-2.8823,-2.882,-2.8817,-2.8815,-2.8805,-2.8807,-2.8809,0,0,0,0,0,0,0,0,0,0,0,0,0,-2.8877,-2.8869,-2.8922,-2.8876,-2.8872,-2.8912,-2.8911,-2.8911,-2.8823,-2.882,-2.8817,-2.8814,-2.8804,-2.8807,-2.881,-2.8892,0,0,-2.8818,-2.8819,0,0,0,0,0,0,0,0,-2.8877,-2.8879,-2.8883,-2.888,-2.8875,-2.8865,-2.8888,-2.8905,-2.8824,-2.8842,-2.8816,-2.8812,-2.8828,-2.8829,-2.8834,-2.8892,-2.8891,-2.8818,-2.882,-2.8821,-2.8821,0,0,0,0,0,0,0,-2.8876,-2.8879,-2.8918,-2.8883,-2.8878,-2.8857,-2.8855,-2.8891,-2.8854,-2.884,-2.8834,-2.8834,-2.8825,-2.8831,-2.8833,-2.8891,-2.8818,-2.882,-2.8822,-2.8823,-2.9016,-2.902,0,0,0,0,0,0,-2.8882,-2.8879,-2.8918,-2.8918,-2.8868,-2.8861,-2.8858,-2.8871,-2.8853,-2.8847,-2.8836,-2.8829,-2.8829,-2.883,-2.8832,-2.8927,-2.8821,-2.8823,-2.8825,-2.9013,-2.9017,-2.9021,0,0,0,0,0,0,-2.8881,-2.8886,-2.8919,-2.8897,-2.8899,-2.8865,-2.8881,-2.8873,-2.8879,-2.885,-2.8843,-2.885,-2.8826,-2.8828,-2.8878,-2.8925,-2.8824,-2.8827,-2.9009,-2.9014,-2.9019,-2.9118,0,0,0,0,0,0,-2.888,-2.8886,-2.8917,-2.8898,-2.8901,-2.8964,-2.8884,-2.8875,-2.8884,-2.8875,-2.8861,-2.8855,-2.8824,-2.8874,-2.8881,-2.8927,-2.8829,-2.9004,-2.9011,-2.9017,-2.911,-2.9126,-2.914,0,0,0,0,0,-2.8878,-2.8945,-2.8919,-2.8924,-2.8938,-2.8967,-2.8969,-2.8931,-2.8888,-2.8919,-2.89,-2.8856,-2.892,-2.888,-2.8886,-2.8935,-2.9001,-2.9009,-2.9017,-2.9104,-2.9123,-2.9139,0,0,0,0,0,0,-2.897,-2.8942,-2.8912,-2.8975,-2.8974,-2.8952,-2.8989,-2.8952,-2.8963,-2.8954,-2.8907,-2.8905,-2.8962,-2.8953,-2.891,-2.9014,-2.8953,-2.8962,-2.9017,-2.9035,-2.9049,-2.9049,-2.8831,0,0,0,0,0,-2.8998,-2.9023,-2.8997,-2.9055,-2.9057,-2.9024,-2.9035,-2.9006,-2.9003,-2.9002,-2.8987,-2.8987,-2.9006,-2.902,-2.9037,-2.911,-2.9105,-2.9146,-2.9161,-2.9173,-2.9181,-2.9219,-2.9237,-2.9047,-2.9047,-2.9047,0,0,-2.9055,-2.9043,-2.9061,-2.9074,-2.9069,-2.9097,-2.9024,-2.9056,-2.9076,-2.9007,-2.9052,-2.9042,-2.9038,-2.91,-2.9126,-2.9094,-2.9233,-2.9183,-2.9193,-2.9194,-2.9229,-2.9247,-2.9263,-2.9053,-2.9052,-2.9051,0,0,-2.9173,-2.9166,-2.9214,-2.9212,-2.9207,-2.9184,-2.9196,-2.918,-2.917,-2.9215,-2.9164,-2.9188,-2.9224,-2.9223,-2.9227,-2.9348,-2.9307,-2.9355,-2.943,-2.9468,-2.9483,-2.9496,-2.9538,-2.9553,-2.9364,-2.9364,-2.9364,0,-2.9244,-2.9283,-2.9243,-2.9279,-2.9286,-2.9226,-2.9273,-2.9273,-2.9275,-2.9281,-2.9246,-2.929,-2.9283,-2.9343,-2.9373,-2.9379,-2.939,-2.9355,-2.9484,-2.9496,-2.9508,-2.9547,-2.9564,-2.937,-2.9369,-2.9368,-2.9368,0,-2.9371,-2.94,-2.9439,-2.9441,-2.9453,-2.9495,-2.9462,-2.9478,-2.945,-2.9432,-2.9479,-2.9469,-2.9483,-2.9495,-2.9467,-2.9552,-2.9533,-2.9492,-2.9429,-2.9532,-2.9569,-2.9584,-2.9378,-2.9376,-2.9374,-2.9373,0,0,-2.9544,-2.9525,-2.954,-2.954,-2.9532,-2.9553,-2.9593,-2.9607,-2.9622,-2.9626,-2.9658,-2.969,-2.9652,-2.9658,-2.9629,-2.9663,-2.9758,-2.9617,-2.9616,-2.9643,-2.985,-2.988,-2.9898,-2.9732,-2.9735,-2.9737,-2.985,0,-2.9656,-2.9722,-2.9688,-2.9759,-2.9785,-2.9729,-2.9764,-2.9763,-2.9748,-2.9768,-2.9751,-2.9774,-2.9723,-2.9726,-2.9757,-2.974,-2.9799,-2.9731,-2.9761,-2.9762,-2.9761,-2.9917,-2.9948,-3.0056,-2.9864,-2.9867,-2.9868,0,-2.9796,-2.9805,-2.9879,-2.9866,-2.9875,-2.9907,-2.9917,-2.9937,-2.9935,-2.9922,-2.9929,-2.9893,-2.9932,-2.9872,-2.9925,-2.988,-2.9891,-2.9885,-2.9888,-2.9887,-2.982,-2.992,-3.0089,-3.0105,-2.9891,-2.9889,-2.9887,0,-2.9913,-2.9945,-2.9992,-2.9995,-2.9981,-3.0005,-3.0,-2.9995,-3.0006,-3.0015,-3.0022,-3.0036,-3.0044,-3.0056,-3.0025,-2.9984,-3.0082,-3.002,-3.0072,-3.0073,-3.0093,-3.0092,-3.0265,-3.0103,-3.0103,-3.0103,-3.0102,0,-3.0041,-3.0088,-3.0045,-3.0074,-3.0125,-3.0087,-3.0138,-3.0128,-3.0124,-3.0151,-3.0105,-3.0131,-3.009,-3.0112,-3.0089,-3.0136,-3.014,-3.013,-3.0123,-3.0133,-3.0134,-3.0138,-3.0129,-3.0107,-3.0106,-3.0105,-3.0105,0,-3.0179,-3.0153,-3.0201,-3.0185,-3.0182,-3.022,-3.0206,-3.0233,-3.0216,-3.025,-3.0256,-3.0229,-3.0253,-3.0224,-3.0246,-3.023,-3.0294,-3.0277,-3.0295,-3.0289,-3.0343,-3.0337,-3.0522,-3.0544,-3.037,-3.0372,-3.0374,0,-3.0262,-3.0296,-3.0284,-3.0299,-3.0297,-3.0321,-3.0332,-3.0296,-3.0309,-3.0311,-3.0338,-3.0358,-3.0372,-3.0413,-3.0395,-3.0412,-3.0394,-3.0458,-3.0396,-3.0405,-3.0393,-3.0391,-3.0394,-3.047,-3.0472,-3.0473,-3.0475,0,-3.0411,-3.0396,-3.0413,-3.0427,-3.0441,-3.045,-3.0455,-3.047,-3.0433,-3.0451,-3.0474,-3.0486,-3.0508,-3.0529,-3.0541,-3.0536,-3.05,-3.0495,-3.0507,-3.0517,-3.0526,-3.0521,-3.0327,-3.049,-3.0488,-3.0487,-3.0487,-3.0486,-3.0522,-3.0551,-3.0547,-3.0568,-3.0569,-3.0575,-3.0599,-3.0586,-3.0605,-3.062,-3.0598,-3.0628,-3.0627,-3.0639,-3.0639,-3.0663,-3.0635,-3.0654,-3.0658,-3.0663,-3.0671,-3.0524,-3.0665,-3.0664,-3.0664,-3.0664,-3.0663,0,-3.0668,-3.0663,-3.0683,-3.0692,-3.0709,-3.0674,-3.0679,-3.0695,-3.0722,-3.0724,-3.0739,-3.0767,-3.0787,-3.0772,-3.0789,-3.0811,-3.0794,-3.0816,-3.0813,-3.0813,-3.0695,-3.0681,-3.0829,-3.0829,-3.0829,-3.0829,-3.0829,-3.0829,-3.0745,-3.0791,-3.0777,-3.0823,-3.0818,-3.0847,-3.0852,-3.0858,-3.0859,-3.0893,-3.0909,-3.09,-3.0895,-3.0911,-3.0929,-3.0924,-3.0932,-3.096,-3.0949,-3.0838,-3.0821,-3.0806,-3.0793,-3.0962,-3.0962,-3.1065,-3.1066,-3.1066]},{"header":{"parameterUnit":"m.s-1","parameterCategory":1,"la1":30.2991,"la2":30.254,"lo1":-89.0895,"lo2":-89.0444,"dy":0.0017,"dx":0.0017,"nx":28,"ny":28,"refTime":"2025-09-01T21:00:00:Z","depth":0,"parameterNumber":3,"parameterNumberName":"V-component_of_WINDS"},"data":[0,0,0,0,0,0,0,0,0,0,0,0,0,0,0,0,0,0,0,0,0,0,0,0,0,0,0,0,0,0,0,0,0,0,0,0,0,0,0,0,0,0,0,0,0,0,0,0,0,0,0,0,0,0,0,0,0,0,2.5237,2.5237,0,2.5254,2.5254,2.5254,2.53,2.5301,2.5302,2.5302,2.5316,2.5315,2.5315,0,0,0,0,0,0,0,0,0,0,0,0,0,2.524,2.524,2.5237,2.5237,2.5237,2.5254,2.5254,2.5254,2.5299,2.5301,2.5302,2.5303,2.5316,2.5315,2.5315,0,0,0,0,0,0,0,0,0,0,0,0,0,2.5246,2.524,2.5237,2.5262,2.5264,2.5254,2.5254,2.5254,2.5299,2.5301,2.5302,2.5303,2.5316,2.5315,2.5315,2.528,0,0,2.5312,2.5312,0,0,0,0,0,0,0,0,2.5246,2.5246,2.5258,2.526,2.5263,2.5276,2.526,2.5263,2.5299,2.5286,2.5302,2.5304,2.5301,2.5302,2.5302,2.5281,2.5281,2.5312,2.5311,2.5311,2.5311,0,0,0,0,0,0,0,2.5245,2.5245,2.5244,2.5258,2.5261,2.5271,2.5274,2.5261,2.5285,2.5287,2.529,2.5292,2.5303,2.5302,2.5302,2.5281,2.5312,2.5311,2.5311,2.531,2.5233,2.5231,0,0,0,0,0,0,2.5242,2.5245,2.5243,2.5244,2.5258,2.527,2.5273,2.527,2.5285,2.5289,2.5291,2.5294,2.5303,2.5303,2.5303,2.5262,2.5311,2.531,2.531,2.5234,2.5232,2.5231,0,0,0,0,0,0,2.5242,2.5241,2.5242,2.5245,2.5246,2.5268,2.5265,2.527,2.5269,2.5288,2.5292,2.5286,2.5304,2.5304,2.5286,2.5264,2.531,2.5309,2.5236,2.5234,2.5231,2.5182,0,0,0,0,0,0,2.5242,2.5241,2.5228,2.5245,2.5246,2.5225,2.5264,2.5269,2.5268,2.5273,2.5285,2.5288,2.5305,2.5287,2.5285,2.5263,2.5309,2.5238,2.5235,2.5232,2.5185,2.5178,2.5172,0,0,0,0,0,2.5242,2.5213,2.5228,2.5227,2.5231,2.5224,2.5225,2.5246,2.5266,2.5254,2.5266,2.5288,2.5267,2.5284,2.5283,2.5261,2.5239,2.5236,2.5232,2.5189,2.518,2.5172,0,0,0,0,0,0,2.5192,2.5216,2.5232,2.5208,2.5214,2.5232,2.5216,2.5236,2.5235,2.5239,2.5265,2.5267,2.5245,2.5251,2.527,2.5228,2.5257,2.5253,2.5224,2.5216,2.5209,2.5207,2.5308,0,0,0,0,0,2.5179,2.5172,2.5193,2.517,2.5172,2.5194,2.5191,2.5208,2.5214,2.5216,2.5227,2.5231,2.5226,2.5221,2.5218,2.5188,2.519,2.5172,2.5165,2.5159,2.5154,2.5138,2.513,2.5219,2.5219,2.5219,0,0,2.515,2.5162,2.5156,2.516,2.5166,2.5158,2.5195,2.5184,2.5178,2.5214,2.5197,2.5206,2.5212,2.5188,2.5177,2.5192,2.5131,2.5155,2.515,2.5148,2.5134,2.5125,2.5118,2.5217,2.5217,2.5217,0,0,2.5093,2.5103,2.5084,2.509,2.51,2.5115,2.5111,2.5126,2.5133,2.5117,2.5144,2.5137,2.5127,2.513,2.5131,2.5077,2.5096,2.5075,2.5038,2.5022,2.5015,2.5009,2.4988,2.4981,2.5071,2.5071,2.5071,0,2.5056,2.5045,2.5072,2.506,2.506,2.5095,2.5076,2.508,2.5087,2.5086,2.5103,2.5092,2.5099,2.5075,2.5062,2.5062,2.5057,2.5073,2.5014,2.5008,2.5003,2.4983,2.4976,2.5068,2.5068,2.5069,2.5069,0,2.4999,2.4991,2.4975,2.4982,2.4981,2.4965,2.4989,2.4984,2.5001,2.5014,2.4997,2.5007,2.5005,2.5002,2.5018,2.498,2.4989,2.501,2.5039,2.4991,2.4973,2.4966,2.5064,2.5065,2.5066,2.5067,0,0,2.4909,2.4933,2.4926,2.493,2.4944,2.4938,2.4924,2.4924,2.4919,2.4923,2.4911,2.4903,2.4923,2.4923,2.494,2.4926,2.4881,2.4949,2.4949,2.4934,2.4839,2.4822,2.4813,2.4896,2.4895,2.4893,2.4838,0,2.4854,2.4832,2.4856,2.4828,2.4821,2.4854,2.4842,2.4849,2.4861,2.4855,2.4868,2.4861,2.4889,2.4889,2.4877,2.4889,2.4862,2.4894,2.4883,2.4882,2.4878,2.4804,2.4785,2.4732,2.4831,2.483,2.483,0,2.4787,2.479,2.4761,2.4778,2.4775,2.4764,2.4766,2.4761,2.4769,2.4779,2.478,2.4801,2.4787,2.4818,2.4798,2.4819,2.4816,2.4822,2.482,2.4818,2.4851,2.4797,2.4716,2.4707,2.4819,2.482,2.4821,0,2.4722,2.4719,2.4701,2.4704,2.4723,2.4714,2.4721,2.4731,2.4729,2.4731,2.473,2.473,2.4729,2.4728,2.4748,2.4768,2.4725,2.4758,2.4731,2.473,2.4718,2.4718,2.4633,2.472,2.472,2.472,2.4721,0,2.4657,2.4638,2.4673,2.4662,2.4641,2.4669,2.4648,2.4658,2.4667,2.4658,2.4688,2.4678,2.4706,2.47,2.4716,2.4696,2.4696,2.4702,2.4706,2.4698,2.4697,2.4695,2.4698,2.4718,2.4719,2.4719,2.472,0,2.458,2.4603,2.4586,2.4606,2.4611,2.4594,2.4611,2.4601,2.4616,2.4604,2.4603,2.4625,2.4619,2.464,2.4637,2.4647,2.4619,2.463,2.4616,2.4618,2.459,2.4592,2.4499,2.4487,2.4583,2.4582,2.4581,0,2.4536,2.4523,2.4542,2.4538,2.4544,2.4539,2.4538,2.4565,2.4563,2.4572,2.456,2.4557,2.4555,2.4544,2.4559,2.4556,2.4566,2.4534,2.4566,2.4558,2.4563,2.4563,2.4561,2.4526,2.4525,2.4524,2.4523,0,2.4455,2.4467,2.4466,2.4468,2.4466,2.4469,2.4473,2.4469,2.4498,2.4494,2.4488,2.4487,2.4485,2.448,2.4482,2.4488,2.4509,2.4514,2.4507,2.4498,2.4489,2.4492,2.4595,2.4515,2.4516,2.4517,2.4517,2.4517,2.4392,2.4381,2.4393,2.439,2.4397,2.4401,2.4392,2.4407,2.4403,2.4404,2.4421,2.4412,2.4421,2.4425,2.4429,2.4422,2.4436,2.4427,2.4425,2.4421,2.4416,2.4493,2.4422,2.4423,2.4423,2.4423,2.4423,0,2.4311,2.4321,2.4318,2.4324,2.4321,2.4345,2.4351,2.4347,2.4339,2.4346,2.4345,2.4338,2.4335,2.435,2.4349,2.434,2.4349,2.4338,2.4338,2.4338,2.4403,2.4408,2.433,2.433,2.433,2.433,2.433,2.433,2.4268,2.4251,2.4265,2.4251,2.4261,2.4253,2.4255,2.4258,2.4264,2.4256,2.4253,2.4265,2.4275,2.4274,2.4271,2.4276,2.4273,2.4257,2.4265,2.4325,2.4334,2.4342,2.4347,2.4257,2.4257,2.4201,2.42,2.42]}]]